COSMOS 1275 DEB

Satellite information

Favourite Embed

Satellite Type and Status

DEBRISIN ORBIT

Key statistics

Satellite COSMOS 1275 DEB at a glance.

Uptime

16103

Days in orbit

Revolutions

≈ 14.0

Per day

Orbit

LEO

Low Earth Orbit

Inclination

82.7

Latest

Satellite identification and parameters

Extended collection of information and parameters for COSMOS 1275 DEB.

Object identification

Identified? True

Debris? True

Object name: COSMOS 1275 DEB

International designator: 1981-053PC

Object number (NORAD): 39966

Object ID (CCSDS): 39966

Country: COMMONWEALTH OF INDEPENDENT STATES (CIS)

Current information (Y/N): Y

RCS size: SMALL

Orbital parameters

Period: 102.693 minutes

Inclination: 82.7067 deg

SMA: 7264.207 km

Apoapsis: 913.423 km

Periapsis: 858.721 km

RAAN: 277.4676 deg

Eccentricy: 0.0037652

Argument of periapsis: 300.5047 deg

Mean anomaly: 89.5437 deg

Mean motion: 14.0223384 rev/day

Mean motion (dot): 0.00001047 rev/day2

B* drag term: 0.00067035 1/REarth

Two-line elements (TLE)

Creation date: July 5, 2025, 5:45 p.m.

Reference frame: TEME

Reference center: EARTH

Epoch: July 5, 2025, 5:46 a.m. UTC

TLE line 0: 0 COSMOS 1275 DEB

TLE line 1: 1 39966U 81053PC 25186.24087082 .00001047 00000-0 67035-3 0 9999

TLE line 2: 2 39966 82.7067 277.4676 0037652 300.5047 89.5437 14.02233840564486

Live tracking on map

Real-time ground track for satellite COSMOS 1275 DEB.

In-orbit conjunctions

A list of the most updated potential collisions computed for object COSMOS 1275 DEB.

Target Orbit TCA Probability of collision Miss distance Type
THORAD AGENA D DEB SSO 2025-01-02 00:40:52 0.0001230272 130.0 (m) DEBRIS
CZ-6A DEB SSO 2024-10-23 09:06:46 0.0002140896 77.0 (m) DEBRIS

Associated space launch

Navigation satellite providing location information for the Tsiklon-B navigation system

COSMOS 1275 DEB was lifted into orbit during the mission ‘Kosmos-3M | Parus 27’, on board a Kosmos-3M space rocket.

The launch took place on June 4, 1981, 3:41 p.m. from 132/2.

For more information about the launch, click the button.

Launch to space Kosmos-3M | Parus 27
Kosmos-3M | Parus 27

Agency: N/A

Status: Launch Successful

Launch date: June 4, 1981, 3:41 p.m. UTC

Rocket: Kosmos-3M

Launch pad: 132/2

Location: Plesetsk Cosmodrome, Russian Federation

...

Latest news about this satellite

There are no fresh news available about this satellite. Check back as we update our databases every day.


Newsletter sign-up

Weekly statistics, charts and insights to help you stay on top of the space industry.